Location: Dumpton Point
(51.3500°N, 1.4433°E)
Time: 20:46:30
(UTC+00:00)

Vanguard 2 Rocket - Pass Details

Date: 30 September 2022
Orbit: 555 x 3321 km, 32.9° (Epoch: 05 December)

Event Time Altitude Azimuth Distance (km) Brightness Sun altitude
Rises 21:19:26 0° 199° (SSW) 6,635 11.1 -33.0°
Enters shadow 21:22:05 - 193° (SSW) 6,089 10.8 -33.3°
Reaches altitude 10° 21:28:20 10° 175° (S) 4,920 - -34.0°
Maximum altitude 21:32:26 12° 157° (SSE) 4,367 - -34.4°
Drops below altitude 10° 21:36:00 10° 138° (SE) 4,152 - -34.8°
Sets 21:41:40 0° 109° (ESE) 4,496 - -35.3°
